User: anonymous   Login
Location: *
(2.5500°S, 65.9667°W)
Time: 18:23:16
(UTC+00:00)
Language:

Tiros 1 - Orbit

View from above orbital plane
View from above orbital plane
View from above satellite
View from above satellite

Ground track
Ground track

The orbit data is extracted from the following two-line orbital elements,

1 00029U 60002B   24113.50059954  .00002619  00000-0  40285-3 0  9997
2 00029  48.3762 152.4872 0022734 129.6936 230.5985 14.76211580425936
Epoch (UTC): 22 April 2024 12:00:51
Eccentricity: 0.0022734
inclination: 48.3762°
perigee height: 625 km
apogee height: 657 km
right ascension of ascending node: 152.4872°
argument of perigee: 129.6936°
revolutions per day: 14.76211580
mean anomaly at epoch: 230.5985°
orbit number at epoch: 42593

The dashed part of the orbit path shows where the satellite is in the earth's shadow,  

DLR